Regional Weather Roundup
Issued by NWS Burlington, VT

Home | Current Version | Previous Version | Text Only | Print | Product List | Glossary On
Versions: 1 2 3 4 5 6 7 8 9 10 11 12 13 14 15 16 17 18 19 20 21 22 23 24 25 26 27 28 29 30 31 32 33 34 35 36 37 38 39 40 41 42 43 44 45 46 47 48 49 50
000
ASUS41 KBTV 300310
RWRBTV
VERMONT REGIONAL WEATHER ROUNDUP
NATIONAL WEATHER SERVICE BURLINGTON VT
1100 PM EDT TUE JUL 29 2014

NOTE: "FAIR" INDICATES FEW OR NO CLOUDS BELOW 12,000 FEET WITH NO
SIGNIFICANT WEATHER AND/OR OBSTRUCTIONS TO VISIBILITY.

* THESE REPORTS ARE NOT UNDER NWS QUALITY CONTROL AND/OR DO NOT
  REPORT WEATHER SUCH AS PRECIPITATION AND FOG.

VTZ001>019-300400-
_____VERMONT_____


CITY           SKY/WX    TMP DP  RH WIND       PRES   REMARKS
BURLINGTON     CLEAR     58  54  86 E3        29.96S
MONTPELIER     CLEAR     52  50  93 CALM      30.02R
MORRISVILLE    CLEAR     52  49  89 CALM      29.99S
ST. JOHNSBURY*   N/A     54  52  93 MISG      29.96S
LYNDONVILLE*     N/A    N/A N/A N/A MISG        N/A
MIDDLEBURY*    MOCLDY    56  56 100 CALM      29.96R
RUTLAND*       CLOUDY    55  54  94 SE7       29.97S
SPRINGFIELD    PTCLDY    56  55  97 CALM      29.97S
HIGHGATE*      FAIR      55  54  94 CALM      29.95S
NEWPORT*       FAIR     N/A N/A N/A S3        29.98S
BENNINGTON     CLOUDY    57  54  89 S5        29.97S
SUTTON*          N/A     50 N/A N/A MISG        N/A

_____LAKE CHAMPLAIN_____


CITY           SKY/WX    TMP DP  RH WIND       PRES   REMARKS
COLCHESTER RF*   N/A     64  57  77 SE3         N/A
DIAMOND ISL*     N/A     64  57  77 W1          N/A

$$

NYZ007-026>031-035-052-083-300400-
_____NORTHERN NEW YORK_____


CITY           SKY/WX    TMP DP  RH WIND       PRES   REMARKS
PLATTSBURGH    CLEAR     54  53  97 CALM      29.95S FOG
SARANAC LAKE   CLEAR     47  46  97 CALM      29.98S
MASSENA        CLEAR     56  54  93 S3        29.95S
OGDENSBURG*    PTCLDY    61  55  82 SW3       29.95R
POTSDAM*       CLEAR     57  55  94 S3        29.96S
WATERTOWN      CLEAR     58  50  75 S5        29.96F
FT DRUM        CLEAR     56  53  91 S7        29.96F
ALBANY         MOCLDY    64  53  67 W6        29.96S
GLENS FALLS    PTCLDY    58  56  93 CALM      29.95S

$$
NHZ002-005-011-300400-
_____NEW HAMPSHIRE_____


CITY           SKY/WX    TMP DP  RH WIND       PRES   REMARKS
LEBANON        CLOUDY    59  55  87 NE3       29.96R
KEENE          CLEAR     57  48  72 CALM      29.96S
MT WASHINGTON  MOCLDY    41  37  87 W12         N/A
PLYMOUTH       FAIR      54  53  95 SE3       29.95S
WHITEFIELD     CLEAR     52  48  86 CALM      29.98S

$$

_____REGIONAL QUEBEC LOCATIONS_____


CITY           SKY/WX    TMP DP  RH WIND       PRES   REMARKS
MONTREAL       PTCLDY    64  55  72 S9        29.93S
QUEBEC CITY    CLEAR     55  52  88 W6        29.92R
SHERBROOKE     CLEAR     50  50 100 CALM      29.96R FOG

_____REGIONAL ONTARIO LOCATIONS_____


CITY           SKY/WX    TMP DP  RH WIND       PRES   REMARKS
OTTAWA         PTCLDY    61  55  82 S5        29.93S

______KEY______
VSB  - VISIBILITY IN MILES
WCI  - WIND CHILL INDEX
HX   - HEAT INDEX
$$
NNNN



USA.gov is the U.S. government's official web portal to all federal, state and local government web resources and services.